Location: Observatoire de Paris
(48.8363°N, 2.3365°E)
Time: 08:38:06
(UTC+01:00)

BUGSAT 1 - Pass Details

Date: 04 October 2021
Orbit: 556 x 602 km, 98.1° (Epoch: 22 October)

Event Time Altitude Azimuth Distance (km) Brightness Sun altitude
Rises 04:32:47 0° 31° (NNE) 2,774 ? -23.7°
Reaches altitude 10° 04:35:56 10° 58° (ENE) 1,863 ? -23.2°
Maximum altitude 04:38:01 14° 89° (E) 1,626 ? -22.9°
Drops below altitude 10° 04:40:05 10° 121° (ESE) 1,846 ? -22.6°
Sets 04:43:10 0° 148° (SSE) 2,731 ? -22.1°
